Temperature
21 21 20 20 19 19 20 21 22 22 21 21 21 21 20 19 19 19 19 19 19 19 18 18 18 18 18 18 18 19 18 19 19 19 19 19 19 18 18 18 18 18 18 18 18 18 18 18 18
21 21 20 20 19 19 21 22 22 22 21 21 21 20 19 18 18 19 19 19 19 19 18 18 18 18 18 18 18 18 18 18 19 19 19 19 18 18 18 18 19 18 18 18 18 18 18 18 18
21 21 20 19 20 20 21 22 22 22 22 22 21 20 19 19 19 19 19 19 19 19 18 18 18 18 18 18 18 18 18 18 18 18 18 18 18 18 18 18 19 19 18 18 18 18 18 18 18
21 21 21 19 21 21 22 22 22 22 22 21 20 19 19 19 19 19 19 19 19 19 18 18 18 18 18 18 18 18 18 18 18 18 18 18 18 18 18 18 19 18 18 18 18 18 18 18 18
22 21 20 20 21 22 22 23 23 22 21 21 20 19 19 19 19 19 19 19 19 19 18 18 18 18 18 18 18 18 18 18 18 18 18 18 18 18 18 19 18 18 18 18 18 18 18 18 18
22 20 20 20 21 22 23 23 22 21 21 21 20 19 18 19 19 19 19 19 19 19 18 18 18 18 18 18 18 18 18 18 18 18 18 18 18 18 18 18 18 18 18 18 18 18 18 18 18
21 20 21 21 22 22 23 23 22 21 21 21 20 19 19 19 19 19 19 19 18 18 18 18 18 18 18 18 18 18 18 18 18 18 19 18 18 18 18 18 18 18 18 18 18 18 18 18 18
22 20 21 21 22 22 23 23 22 22 21 21 21 19 19 19 19 19 19 18 18 18 18 18 18 18 18 18 18 18 18 18 18 18 19 18 18 18 18 18 18 18 18 18 18 18 18 18 18
23 20 21 22 22 22 23 22 22 22 21 21 20 20 20 19 19 19 19 18 18 18 18 18 18 18 18 18 18 18 18 18 18 18 18 18 18 18 18 18 18 18 18 18 18 18 18 18 18
22 20 22 23 23 22 23 22 22 22 21 20 20 20 20 19 19 19 19 19 19 19 18 18 18 18 18 18 18 18 18 19 18 18 18 18 18 18 18 18 18 18 18 18 18 18 18 18 18
22 22 23 24 24 23 23 22 22 21 21 21 20 20 19 19 19 19 19 19 19 19 19 19 19 19 19 19 18 18 18 18 18 18 18 18 18 18 18 18 18 18 18 18 18 18 18 18 18
23 23 24 24 24 24 23 23 22 22 22 22 21 21 20 19 19 19 19 19 19 19 19 19 19 19 19 19 18 18 18 18 18 18 18 18 18 18 18 18 18 18 18 18 18 18 18 18 18
24 24 25 25 24 24 23 23 22 22 22 21 21 20 20 20 20 20 19 19 19 19 19 19 19 19 19 19 18 19 18 18 18 18 18 18 18 18 18 18 18 18 18 18 18 18 18 18 18
24 24 24 24 24 24 23 22 22 22 22 21 21 20 20 20 20 20 19 19 19 19 19 19 19 19 19 19 19 19 19 18 18 18 18 18 18 18 18 18 18 18 18 18 18 18 18 18 18
25 24 24 24 24 24 23 22 22 22 22 21 21 20 20 20 20 20 20 20 20 20 19 19 19 19 19 19 19 19 18 18 18 18 18 18 18 18 18 18 18 18 18 18 18 18 18 18 18
24 23 23 24 24 24 23 22 22 22 21 21 20 20 20 20 20 20 20 20 20 20 19 19 19 19 19 19 19 18 18 18 18 18 18 18 18 18 18 18 18 18 18 18 18 18 18 18 18
22 23 23 24 24 23 23 22 22 22 21 21 20 20 20 20 20 20 20 20 20 20 20 19 19 19 19 19 19 19 18 18 18 18 18 18 18 18 18 18 18 18 18 18 18 18 18 18 18
23 23 23 23 24 23 22 22 22 22 21 21 21 21 21 21 21 21 21 20 20 20 20 20 19 19 19 19 19 19 18 18 18 18 18 18 18 18 18 18 18 18 18 18 18 18 18 18 18
24 24 23 24 24 23 22 22 22 21 21 21 21 21 21 21 21 21 21 21 20 20 20 20 19 19 19 19 19 19 18 18 18 18 18 18 18 18 18 18 18 18 18 18 18 18 18 18 18
24 24 24 24 24 24 22 22 22 21 21 21 21 21 21 21 21 21 21 21 21 20 20 20 20 19 19 19 19 19 19 18 18 18 18 18 18 18 18 18 18 18 18 18 18 18 18 18 18
24 24 24 24 24 23 23 22 22 21 22 22 22 22 21 21 21 21 21 21 21 21 20 20 20 20 19 19 19 19 19 18 18 18 18 18 18 18 18 18 18 18 18 18 18 18 18 18 18
24 25 25 24 23 22 23 21 21 21 21 21 21 22 22 22 22 22 22 21 21 21 21 20 20 20 19 19 19 19 19 19 19 18 18 18 18 18 18 18 18 18 18 18 18 18 18 18 18
25 25 24 23 22 21 21 21 21 21 21 21 21 22 22 22 22 22 22 22 22 21 21 20 20 20 20 19 19 19 19 19 19 18 18 18 18 18 18 18 18 18 18 18 18 18 18 18 18
25 23 22 20 20 21 22 21 21 20 21 21 21 22 22 22 22 22 22 22 22 21 21 20 20 20 20 19 19 19 19 19 19 18 18 18 18 18 18 18 18 18 18 18 18 18 18 18 18
23 21 21 21 20 21 21 21 21 22 21 22 22 22 23 23 22 22 22 22 22 21 21 21 20 20 20 20 19 19 19 19 19 19 18 18 18 18 18 18 18 18 18 18 18 18 18 18 18
23 22 21 22 21 21 21 21 22 23 23 23 23 23 23 23 23 23 23 22 22 22 21 21 21 21 20 20 20 19 19 19 19 19 19 18 18 18 18 18 18 18 18 18 18 18 18 18 18
23 21 21 19 20 21 21 21 22 23 22 22 22 22 22 23 23 23 23 23 22 22 22 21 21 21 20 20 20 20 19 19 19 19 18 18 18 18 18 18 18 18 18 18 18 18 18 18 18
23 20 18 19 21 22 22 22 21 23 22 21 21 22 22 23 23 23 23 23 23 22 22 22 21 21 21 20 20 20 19 19 19 19 19 18 18 18 18 18 18 18 18 18 18 18 18 17 17
22 21 18 17 19 20 21 22 22 22 21 21 21 22 23 23 23 23 23 23 23 23 22 22 21 21 21 20 20 20 19 19 19 19 19 19 18 18 18 18 18 18 18 18 18 18 18 17 17
23 21 19 21 20 18 20 21 23 21 21 21 21 22 23 23 23 23 23 23 23 22 22 22 21 21 21 20 20 19 19 19 19 19 19 19 19 18 18 18 18 18 18 18 18 18 17 17 17
Wind_Speed
8 7 3 1 3 5 3 3 1 3 3 3 5 6 6 4 2 2 0 2 3 2 3 6 8 8 9 10 10 11 12 12 13 13 13 13 13 13 14 13 13 13 13 13 12 12 12 11 11
6 5 1 2 4 4 4 3 3 3 3 3 5 6 6 4 3 3 1 1 3 3 4 6 8 8 9 9 10 10 11 12 13 13 12 12 12 12 13 13 12 12 12 12 12 11 11 11 10
5 3 2 3 3 2 0 2 4 4 3 3 4 5 4 3 2 2 2 4 3 3 4 6 8 8 9 9 9 10 11 11 12 12 12 11 11 12 12 12 12 12 11 11 11 11 10 10 10
2 1 3 5 4 1 2 2 4 4 4 6 4 5 3 3 2 3 4 4 4 2 4 6 7 8 8 9 9 10 10 11 11 11 10 10 11 11 11 11 11 10 10 10 10 9 9 9 8
2 3 5 4 3 3 2 2 2 4 3 5 5 4 3 3 6 6 4 3 3 2 2 6 7 8 8 9 9 9 10 10 10 10 10 10 10 10 10 9 9 9 9 8 8 8 7 7 6
3 4 5 3 2 3 3 2 4 6 5 4 4 3 2 2 5 4 3 3 2 2 2 4 7 8 8 9 9 9 9 9 9 9 10 10 9 9 8 8 8 8 8 7 7 7 6 6 5
3 4 3 2 1 1 1 2 4 5 5 3 3 4 1 1 3 3 3 3 3 2 2 2 4 6 8 8 8 8 9 9 8 8 8 8 8 8 7 6 6 7 6 6 6 5 4 4 3
3 4 2 1 2 1 2 2 3 4 4 3 3 4 3 2 4 5 4 4 3 3 3 3 3 4 5 6 8 9 9 8 8 7 7 7 7 6 5 5 5 5 5 5 4 4 3 3 2
3 4 1 3 4 2 2 3 2 4 5 2 3 3 4 8 7 6 5 4 3 3 3 3 3 3 4 5 6 7 7 7 6 6 6 6 5 4 3 4 4 4 4 3 3 3 2 3 3
3 2 3 3 5 5 4 4 4 4 4 3 6 7 8 8 7 6 5 4 3 2 1 2 3 3 3 4 5 4 4 4 4 4 5 4 4 3 3 3 3 3 3 2 2 2 3 3 3
3 3 2 2 4 6 5 4 3 6 2 3 7 9 9 8 6 5 4 4 3 2 2 2 2 3 3 2 3 3 3 3 4 4 4 4 3 2 3 2 2 2 2 2 2 2 2 3 2
3 2 2 3 4 5 6 5 4 3 3 6 9 10 9 8 6 5 5 4 3 3 2 2 2 3 3 2 2 3 2 2 2 2 3 3 2 2 2 2 2 2 2 2 2 2 2 2 2
1 1 2 5 6 6 6 5 4 2 5 9 10 9 9 8 6 4 4 4 4 3 2 2 3 3 2 3 2 2 2 2 2 2 2 3 2 2 2 1 1 1 2 2 2 2 2 2 1
1 4 5 5 5 4 7 4 4 3 7 9 9 8 7 6 6 5 4 4 4 4 3 2 3 3 3 2 2 2 2 2 2 2 2 3 3 2 2 1 1 1 1 2 2 1 2 2 1
3 5 6 3 3 3 6 3 1 5 8 8 7 7 6 5 6 6 6 6 5 4 3 3 4 3 3 2 2 2 1 2 2 2 2 3 3 3 2 1 1 1 1 2 2 2 2 2 2
4 5 3 2 2 3 5 2 3 7 8 7 7 6 5 5 6 5 6 5 5 5 4 4 4 4 3 3 2 2 2 2 2 2 2 2 3 3 3 2 0 0 1 1 1 2 2 2 2
5 2 0 2 2 3 4 3 3 7 8 7 7 6 6 5 5 5 6 6 6 6 6 5 4 4 4 3 3 3 3 2 2 2 2 2 3 4 3 2 1 1 2 1 1 2 1 1 2
1 1 1 3 3 4 4 3 4 8 8 7 7 6 7 7 8 6 6 6 6 6 5 5 4 4 4 3 3 3 3 2 2 2 2 2 3 3 3 1 1 2 1 1 1 2 2 2 2
4 3 3 4 3 4 4 4 6 8 8 8 7 7 8 8 6 6 6 6 6 5 6 5 5 4 4 3 2 2 1 1 1 1 1 2 2 3 2 1 1 2 1 1 2 2 2 2 2
3 2 2 2 1 3 2 3 4 7 10 9 10 10 9 7 6 6 6 6 6 7 7 6 5 5 4 3 2 2 2 1 1 1 1 1 1 1 2 2 2 2 2 2 2 2 2 1 1
2 5 4 2 2 3 2 3 2 4 5 5 7 8 8 10 9 9 8 8 7 7 8 7 6 5 5 4 3 3 3 2 2 1 1 0 1 1 1 2 2 2 2 2 2 2 3 1 1
4 5 4 2 3 1 2 3 5 4 5 7 8 9 10 10 9 9 9 9 9 8 6 6 6 5 5 5 5 5 3 2 2 1 1 0 1 0 1 2 2 2 2 2 2 2 2 3 1
4 2 4 3 4 2 2 1 7 1 6 10 11 11 10 10 10 10 10 10 8 8 7 6 6 5 5 5 6 5 3 2 1 1 0 0 1 0 0 1 2 2 2 2 1 2 2 2 2
4 6 7 6 5 1 3 3 6 4 8 8 10 11 10 10 10 10 8 7 7 7 7 6 7 6 5 6 5 5 5 4 3 2 2 1 0 0 0 1 1 1 1 2 2 2 2 2 2
5 6 4 4 3 5 2 3 8 7 8 9 11 12 11 10 10 9 9 9 9 9 8 8 8 7 6 6 6 6 6 6 5 4 3 2 1 1 1 1 1 1 1 2 2 2 2 2 2
4 8 7 4 4 5 2 5 7 6 5 5 7 8 9 9 9 9 10 10 10 10 9 9 9 8 7 7 6 6 6 5 4 4 4 4 3 3 2 2 1 1 1 1 2 1 1 2 2
6 4 6 7 3 1 5 7 8 2 1 1 4 6 9 11 11 10 10 10 10 10 11 11 10 8 8 8 7 6 6 6 5 4 3 3 2 2 2 2 2 1 1 1 2 1 1 1 1
5 9 6 6 5 2 6 5 5 5 4 3 5 8 9 9 10 10 9 9 9 10 9 9 9 9 8 7 7 6 6 6 5 4 4 3 3 2 2 2 1 1 1 1 2 1 1 1 0
5 5 5 5 5 6 3 7 6 8 7 7 8 8 9 9 10 10 9 9 8 7 8 8 8 7 6 7 6 5 5 5 5 5 5 4 3 3 3 2 2 2 2 2 2 2 1 1 1
4 7 8 6 4 5 4 8 6 6 6 6 6 6 6 8 8 8 8 7 7 8 8 9 8 8 7 7 6 6 5 5 5 5 5 5 4 4 3 3 2 3 2 2 3 2 2 2 2
Wind_Direction
161 148 145 114 54 48 19 347 46 49 50 44 64 80 89 77 93 133 161 123 99 94 113 122 122 123 120 120 119 119 118 117 116 115 120 123 123 123 122 121 119 119 118 116 115 114 116 117 117
151 158 151 55 67 51 350 348 62 60 118 127 69 68 72 63 64 97 105 142 106 108 115 123 126 123 124 124 123 122 119 119 118 117 117 124 126 127 125 122 122 121 119 117 116 116 116 116 118
167 187 81 65 76 124 88 19 88 85 86 64 66 56 67 75 94 118 164 138 100 103 123 134 132 128 129 127 127 125 121 121 120 119 119 120 120 124 126 125 125 123 121 119 119 117 114 114 115
153 72 55 59 46 312 171 138 122 98 50 45 73 58 54 55 121 126 123 120 103 102 128 137 135 135 136 135 132 129 125 123 122 121 120 120 121 121 123 125 123 122 121 120 119 115 114 116 117
83 76 56 41 16 6 58 101 84 79 55 49 66 72 37 24 85 102 111 111 118 115 135 142 140 142 143 142 138 135 130 128 126 125 122 121 122 122 121 121 122 121 121 119 116 114 114 117 116
56 64 71 55 19 33 52 66 80 78 79 69 66 71 39 65 97 107 105 102 110 123 150 152 150 146 145 143 142 139 135 133 132 130 126 126 125 123 123 123 126 127 124 121 118 115 111 112 116
92 79 102 122 90 53 99 68 87 94 85 72 90 83 64 78 103 109 103 94 81 78 88 119 137 142 145 145 143 143 140 138 135 133 131 130 128 127 128 130 129 128 127 124 119 110 105 104 109
125 94 69 100 126 156 119 81 86 94 90 97 91 118 166 178 115 96 83 79 72 60 63 87 106 118 130 140 142 143 141 139 136 137 135 128 123 122 124 126 130 130 128 123 117 114 103 93 101
102 72 118 189 166 163 129 104 90 80 95 80 69 108 132 127 113 98 85 74 78 78 55 72 92 105 113 126 135 134 134 134 132 132 127 112 96 99 109 122 134 134 128 122 117 117 104 85 88
97 112 224 197 166 148 130 117 126 102 89 68 70 79 109 120 123 121 122 128 125 113 78 74 87 95 108 116 104 99 99 97 96 99 102 97 93 93 99 118 137 131 121 113 98 95 88 76 63
147 187 221 130 142 133 127 121 101 120 131 161 144 137 132 130 131 137 141 142 148 137 118 104 93 94 97 88 96 94 90 87 87 94 102 103 88 70 63 78 80 65 68 54 53 58 66 66 61
160 240 158 134 124 124 133 127 106 129 180 151 143 142 144 148 157 163 160 156 143 140 144 126 105 98 97 96 95 102 100 98 102 113 117 116 96 62 51 63 67 64 64 65 53 54 58 56 51
112 360 83 106 101 110 108 106 114 103 115 120 127 136 149 160 169 167 154 146 148 158 168 154 129 119 112 103 103 111 120 133 139 135 128 132 120 94 79 61 57 57 71 77 65 57 54 48 38
82 76 71 84 91 95 106 95 96 137 127 129 138 147 155 163 162 152 152 159 165 170 167 145 137 137 125 117 108 107 126 137 133 141 139 136 140 131 108 78 59 50 59 76 75 62 55 46 42
75 73 53 52 77 108 104 72 172 153 139 144 154 157 158 161 157 166 174 174 175 176 166 158 154 139 136 133 130 122 131 126 131 143 140 144 150 151 134 102 59 33 58 75 68 58 62 52 49
50 61 54 310 113 130 120 210 212 150 151 159 167 168 169 173 173 178 174 170 168 160 157 165 166 144 143 136 130 119 123 125 124 126 130 147 151 150 138 123 106 70 100 103 90 75 68 55 51
36 66 189 290 205 147 149 214 187 156 165 173 176 178 178 181 184 184 179 172 166 162 157 157 154 144 141 130 121 116 113 104 106 108 115 137 145 151 151 148 138 114 104 95 108 94 110 92 70
211 223 245 233 221 152 180 220 178 170 180 186 184 185 185 192 200 189 181 172 166 158 153 151 143 140 132 117 104 89 86 82 88 99 104 129 141 143 149 141 119 116 107 89 96 106 87 94 91
157 182 236 243 207 159 201 223 200 181 187 193 194 197 200 205 200 180 176 172 163 157 153 156 151 151 136 120 124 118 129 127 107 122 129 142 139 135 135 116 100 110 126 143 142 132 106 81 94
160 190 242 280 155 155 194 243 213 194 204 203 200 201 204 201 190 184 178 177 176 174 172 166 169 166 161 153 145 137 132 127 120 84 78 104 122 138 146 148 146 145 136 120 121 127 118 92 88
200 195 210 210 41 47 76 340 253 229 214 213 210 204 203 203 198 193 187 187 182 185 185 183 178 174 170 153 123 102 80 62 60 48 31 49 116 148 148 153 155 147 144 149 153 148 139 138 72
239 220 186 145 95 330 93 278 278 227 221 223 218 206 207 206 199 194 191 187 189 191 182 176 174 173 170 157 152 152 155 165 194 189 223 317 84 106 154 152 150 145 145 156 170 148 145 144 146
211 121 104 101 116 45 28 159 288 214 235 236 224 213 207 200 193 196 197 191 187 182 179 177 168 171 170 168 167 158 161 172 161 135 113 4 19 13 11 142 143 148 150 155 148 134 140 152 157
128 71 59 50 69 354 250 179 278 227 223 231 218 212 203 195 192 195 192 179 179 174 174 172 170 180 176 172 168 167 170 165 159 172 182 217 253 297 298 157 159 164 160 164 174 165 159 158 151
93 91 42 8 9 258 257 204 251 249 228 217 208 203 197 189 187 188 185 183 185 182 180 176 177 188 187 181 181 182 181 175 181 188 191 194 207 227 240 189 183 194 196 187 167 156 171 176 172
165 140 155 189 223 276 297 237 256 268 248 219 203 193 184 183 186 191 194 192 191 188 184 182 185 191 188 187 192 190 185 185 194 195 190 198 208 218 211 195 197 208 195 184 161 159 193 175 185
139 161 156 134 150 285 286 289 303 303 346 180 183 182 188 189 191 195 195 191 191 190 189 188 188 190 190 190 188 189 189 189 194 191 186 195 204 209 195 190 188 200 192 170 151 170 208 176 191
137 140 106 124 144 249 295 285 258 267 261 240 202 201 200 192 192 195 194 191 192 192 188 185 186 191 193 189 191 196 195 194 189 181 184 188 195 196 182 187 191 201 202 175 158 168 190 162 205
115 108 112 118 149 160 249 272 228 221 222 222 223 210 200 193 193 195 196 192 185 177 178 181 185 187 188 189 189 190 190 189 182 187 193 193 190 186 191 196 194 197 207 197 175 192 182 184 231
158 163 149 153 201 173 183 264 271 224 221 216 221 211 200 194 192 190 186 177 175 178 181 183 185 187 190 186 182 190 186 178 182 193 196 190 190 191 190 191 193 205 208 194 188 203 198 201 218
Height
1489 1489 1490 1492 1495 1503 1506 1499 1493 1493 1494 1495 1494 1494 1497 1500 1503 1508 1505 1503 1503 1503 1503 1503 1504 1505 1506 1507 1508 1509 1511 1512 1513 1514 1515 1516 1518 1520 1521 1523 1525 1526 1528 1529 1530 1532 1533 1534 1535
1490 1490 1493 1493 1502 1514 1509 1498 1496 1495 1495 1495 1495 1497 1498 1500 1501 1503 1503 1504 1504 1504 1505 1505 1505 1506 1508 1509 1510 1512 1513 1514 1515 1516 1517 1518 1520 1522 1523 1525 1527 1528 1530 1531 1532 1533 1535 1536 1537
1491 1492 1494 1496 1505 1512 1507 1498 1496 1496 1496 1496 1497 1499 1500 1502 1503 1504 1504 1505 1505 1506 1506 1507 1508 1508 1510 1511 1513 1514 1515 1516 1517 1518 1519 1520 1522 1524 1525 1527 1529 1530 1531 1533 1534 1535 1536 1537 1538
1492 1494 1496 1501 1506 1503 1500 1498 1496 1496 1497 1498 1499 1501 1503 1505 1505 1505 1505 1506 1506 1507 1508 1509 1510 1511 1512 1513 1514 1516 1517 1518 1519 1520 1521 1522 1524 1526 1527 1529 1530 1532 1533 1534 1536 1537 1538 1539 1540
1493 1494 1501 1508 1506 1501 1498 1498 1497 1498 1499 1500 1500 1503 1506 1507 1507 1507 1507 1507 1508 1508 1509 1510 1511 1512 1513 1515 1516 1517 1519 1520 1521 1522 1524 1525 1526 1528 1529 1531 1532 1534 1535 1536 1537 1539 1539 1540 1541
1495 1496 1509 1514 1508 1501 1500 1499 1499 1500 1502 1503 1503 1505 1507 1509 1508 1508 1508 1508 1509 1509 1510 1510 1512 1513 1515 1516 1518 1519 1520 1522 1523 1524 1526 1527 1528 1530 1531 1533 1534 1535 1536 1538 1539 1540 1541 1542 1542
1496 1501 1509 1509 1508 1504 1502 1501 1501 1502 1503 1505 1505 1507 1509 1510 1510 1510 1509 1509 1509 1510 1510 1511 1512 1514 1516 1518 1519 1521 1522 1524 1525 1526 1528 1529 1530 1532 1533 1534 1536 1537 1538 1539 1540 1541 1542 1543 1543
1496 1501 1507 1509 1508 1506 1502 1502 1503 1504 1505 1507 1507 1507 1509 1511 1511 1511 1511 1510 1510 1511 1511 1512 1513 1515 1517 1519 1521 1523 1524 1525 1527 1528 1530 1531 1532 1533 1534 1536 1537 1538 1539 1541 1542 1542 1543 1543 1544
1497 1506 1511 1507 1506 1504 1502 1503 1505 1506 1507 1508 1508 1508 1510 1511 1512 1512 1512 1511 1511 1512 1513 1514 1515 1517 1519 1521 1523 1525 1526 1527 1529 1530 1531 1532 1533 1534 1535 1536 1538 1539 1540 1541 1542 1543 1544 1544 1544
1498 1508 1504 1499 1499 1500 1502 1504 1506 1507 1508 1509 1510 1511 1512 1512 1513 1513 1513 1513 1514 1515 1516 1517 1518 1520 1522 1523 1525 1526 1528 1529 1531 1532 1533 1534 1535 1535 1536 1537 1539 1540 1541 1542 1543 1544 1544 1545 1545
1497 1501 1497 1497 1497 1499 1502 1505 1506 1508 1510 1510 1510 1511 1513 1514 1515 1515 1516 1516 1517 1518 1519 1520 1521 1523 1524 1526 1527 1529 1530 1531 1533 1534 1535 1536 1536 1537 1537 1539 1540 1542 1543 1543 1544 1545 1545 1545 1546
1497 1496 1496 1497 1498 1500 1503 1505 1507 1508 1509 1510 1511 1512 1514 1515 1516 1517 1518 1519 1520 1521 1522 1523 1524 1525 1527 1528 1530 1531 1532 1533 1535 1536 1536 1537 1538 1538 1539 1540 1542 1543 1544 1545 1545 1546 1546 1546 1546
1497 1497 1496 1498 1500 1502 1504 1506 1508 1510 1510 1512 1513 1514 1515 1516 1518 1519 1521 1522 1522 1523 1525 1526 1527 1528 1529 1531 1532 1533 1534 1535 1537 1537 1538 1539 1539 1540 1541 1542 1543 1544 1545 1546 1546 1547 1546 1547 1547
1497 1497 1498 1500 1502 1504 1506 1509 1510 1511 1512 1513 1514 1515 1516 1518 1519 1520 1522 1523 1524 1525 1527 1528 1529 1530 1532 1533 1534 1535 1536 1537 1538 1539 1540 1540 1541 1542 1542 1543 1544 1545 1546 1546 1547 1547 1547 1547 1547
1497 1500 1502 1503 1503 1506 1508 1512 1511 1511 1513 1514 1515 1517 1518 1519 1520 1521 1523 1524 1526 1527 1529 1530 1531 1532 1533 1535 1536 1537 1538 1539 1540 1540 1541 1542 1542 1543 1544 1544 1545 1546 1547 1547 1547 1548 1548 1548 1548
1500 1507 1513 1507 1505 1506 1512 1519 1511 1512 1513 1515 1516 1518 1519 1520 1521 1522 1524 1525 1527 1529 1530 1531 1533 1534 1535 1536 1537 1538 1539 1540 1541 1542 1542 1543 1544 1544 1545 1546 1546 1547 1548 1548 1548 1548 1548 1548 1548
1511 1518 1517 1510 1505 1506 1511 1515 1511 1512 1513 1515 1516 1518 1519 1520 1522 1523 1525 1526 1528 1529 1531 1532 1534 1535 1536 1537 1538 1539 1540 1541 1542 1543 1544 1544 1545 1546 1546 1547 1547 1548 1548 1549 1549 1549 1549 1549 1548
1518 1518 1516 1514 1506 1507 1511 1512 1510 1511 1513 1514 1516 1517 1519 1520 1521 1523 1525 1527 1528 1530 1532 1533 1534 1536 1537 1538 1539 1540 1541 1542 1543 1544 1545 1546 1546 1547 1547 1548 1548 1549 1549 1549 1549 1549 1549 1549 1549
1507 1512 1515 1510 1503 1507 1511 1511 1509 1510 1512 1514 1515 1516 1517 1518 1521 1523 1525 1527 1528 1530 1531 1533 1535 1536 1537 1538 1540 1540 1542 1543 1544 1545 1546 1547 1547 1548 1548 1549 1549 1549 1549 1549 1550 1550 1549 1549 1549
1506 1512 1513 1508 1503 1507 1511 1511 1508 1508 1509 1510 1512 1514 1516 1518 1520 1522 1524 1526 1527 1529 1530 1532 1534 1536 1537 1539 1540 1541 1543 1544 1545 1546 1546 1547 1548 1548 1549 1549 1549 1549 1549 1549 1550 1550 1549 1549 1549
1506 1510 1510 1510 1507 1507 1511 1516 1511 1508 1508 1510 1511 1513 1514 1516 1518 1520 1522 1524 1526 1528 1529 1531 1533 1535 1537 1539 1540 1542 1543 1544 1545 1546 1547 1547 1548 1548 1549 1549 1549 1549 1550 1549 1549 1549 1549 1549 1549
1510 1500 1502 1506 1516 1522 1518 1532 1515 1509 1508 1508 1508 1509 1511 1513 1516 1518 1520 1522 1524 1526 1529 1531 1533 1535 1536 1538 1539 1541 1542 1543 1545 1546 1547 1547 1548 1548 1549 1549 1549 1549 1549 1549 1549 1549 1549 1549 1549
1501 1497 1502 1508 1516 1524 1522 1530 1521 1510 1510 1506 1504 1505 1507 1509 1512 1515 1517 1519 1522 1525 1528 1530 1532 1534 1536 1537 1539 1540 1542 1543 1544 1545 1546 1547 1548 1548 1549 1549 1549 1549 1549 1549 1549 1548 1548 1548 1548
1496 1502 1509 1517 1524 1536 1526 1530 1525 1513 1505 1500 1499 1501 1503 1506 1509 1512 1515 1518 1520 1523 1526 1528 1530 1532 1534 1536 1538 1539 1540 1542 1543 1544 1545 1546 1547 1547 1548 1548 1548 1548 1548 1548 1548 1548 1548 1548 1548
1499 1516 1536 1538 1545 1540 1524 1526 1520 1499 1494 1493 1493 1496 1499 1503 1506 1509 1512 1515 1518 1520 1523 1526 1528 1530 1533 1535 1536 1538 1539 1541 1542 1543 1544 1545 1545 1546 1547 1547 1548 1548 1548 1548 1548 1548 1547 1547 1547
1502 1511 1535 1545 1547 1539 1526 1526 1507 1492 1489 1489 1490 1493 1497 1500 1503 1506 1509 1512 1515 1518 1521 1523 1526 1528 1530 1532 1534 1536 1538 1539 1540 1542 1543 1544 1544 1545 1546 1546 1547 1547 1547 1547 1547 1547 1547 1546 1546
1503 1510 1511 1530 1535 1539 1531 1518 1501 1489 1488 1488 1489 1491 1494 1497 1500 1503 1506 1510 1513 1515 1518 1520 1523 1525 1528 1530 1532 1534 1536 1537 1539 1540 1541 1542 1543 1544 1544 1545 1545 1545 1546 1546 1546 1546 1546 1545 1545
1493 1503 1519 1529 1541 1543 1532 1523 1514 1495 1491 1489 1489 1489 1491 1494 1497 1500 1503 1507 1510 1513 1515 1518 1521 1523 1525 1528 1530 1532 1533 1535 1537 1538 1539 1540 1541 1542 1543 1544 1544 1544 1544 1545 1545 1545 1544 1544 1544
1500 1506 1515 1527 1528 1540 1540 1524 1493 1490 1487 1487 1486 1486 1488 1491 1494 1497 1501 1504 1507 1510 1513 1515 1518 1520 1523 1525 1527 1529 1531 1533 1535 1536 1537 1538 1539 1540 1541 1542 1542 1543 1543 1543 1543 1543 1543 1542 1542
1490 1498 1509 1520 1528 1531 1533 1520 1483 1483 1482 1483 1483 1484 1486 1489 1492 1495 1498 1502 1504 1507 1510 1512 1515 1518 1520 1523 1525 1527 1529 1531 1532 1533 1535 1536 1537 1538 1539 1540 1541 1541 1541 1541 1541 1541 1541 1541 1540